Regional Weather Roundup
Issued by NWS Grand Forks, ND

Home | Current Version | Previous Version | Graphics & Text | Print | Product List | Glossary Off
Versions: 1 2 3 4 5 6 7 8 9 10 11 12 13 14 15 16 17 18 19 20 21 22 23 24 25 26 27 28 29 30 31 32 33 34 35 36 37 38 39 40 41 42 43 44 45 46 47 48 49 50

000
ASUS43 KFGF 210510
RWRFGF
PRAIRIE TO PINES  WEATHER ROUNDUP
NATIONAL WEATHER SERVICE EASTERN NORTH DAKOTA/GRAND FORKS ND
1200 AM CDT THU AUG 21 2014

 **SATELLITE DATA USED TO AUGMENT SKY COVER AT AUTOMATED STATIONS**
 *****  WEATHER ACROSS EASTERN NORTH DAKOTA  *****

CITY           SKY/WX    TMP DP  RH WIND       PRES   REMARKS
GRAND FORKS    MOCLDY    71  66  84 SE10      29.79R
GRAND FRKS AFB MOCLDY    71  70  99 SE8       29.80R
GRAND FRKS NWS   N/A     68 N/A N/A S9          N/A
DEVILS LAKE    CLOUDY    72  64  78 SE13G18   29.75F
FARGO          CLOUDY    74  66  76 SE10      29.78R
WAHPETON ARPT  CLOUDY    72  63  73 SE9       29.77S
$$

 ***** WEATHER ACROSS CENTRAL AND WESTERN NORTH DAKOTA  *****

CITY           SKY/WX    TMP DP  RH WIND       PRES   REMARKS
BISMARCK       MOCLDY    70  69  97 NW8       29.73R
MINOT          RAIN      65  63  93 N7        29.76F FOG
JAMESTOWN      RAIN      71  69  93 E5        29.78F FOG
MINOT AFB      LGT RAIN  64  64 100 N3        29.77R
GARRISON         N/A     66  65  96 E6        29.76R
WILLISTON      CLEAR     63  60  90 N3        29.79R
DICKINSON      CLEAR     61  59  93 NW7       29.80R
HETTINGER      CLEAR     60  57  89 NW3       29.82R
$$

 *****  OTHER AIRPORT OBSERVATIONS IN OUR AREA  *****

CITY           SKY/WX    TMP DP  RH WIND       PRES   REMARKS
WALHALLA         N/A     70  70 100 SE7       29.78S
GRAFTON AIRPOR FAIR      68  68 100 SE9       29.79R
VALLEY CITY AR LGT RAIN  72  72 100 CALM      29.80R
CANDO          MOCLDY    70  68  94 SE8       29.76F
CAVALIER APRT  FAIR      70  66  88 SE9       29.79R
GWINNER        PTCLDY    73  72  94 E9        29.76F
ROLLA          CLOUDY    68  68 100 S6        29.78F
 ***** THE ABOVE OBSERVATIONS ARE NON NWS ARE NOT QUALITY
       CONTROLLED AND MAY MIS-REPORT RAIN FOR SNOW...
$$

  *****  WEATHER ACROSS NORTHERN MINNESOTA  *****

CITY           SKY/WX    TMP DP  RH WIND       PRES   REMARKS
FLAG ISLAND    CLEAR     72  63  73 SE14      29.86R
WARROAD        PTCLDY    66  63  88 SE7       29.86F
ROSEAU         PTCLDY    66  61  82 SE7       29.85F
HALLOCK        MOCLDY    72  64  78 SE9       29.80S
THF RVR FALLS  PTCLDY    66  63  88 SE8       29.84R
BAUDETTE       CLEAR     64  60  87 CALM      29.89R
WASKISH        CLOUDY    64  61  88 CALM      29.89S
CROOKSTON      MOCLDY    68  64  88 SE8       29.83R
$$
  *****  WEATHER ACROSS CENTRAL AND WEST MINNESOTA  *****

CITY           SKY/WX    TMP DP  RH WIND       PRES   REMARKS
FOSSTON        PTCLDY    66  61  82 SE6       29.86R
BEMIDJI        PTCLDY    65  63  91 SE8       29.88S
PARK RAPIDS    PTCLDY    68  63  84 SE7       29.88R
ELBOW LAKE     MOCLDY    73  66  80 E13       29.79F
WADENA         PTCLDY    66  63  88 E9        29.85S
DETROIT LAKES  PTCLDY    70  64  83 SE13      29.85S
MOORHEAD       CLOUDY    73  70  88 SE8       29.79S
FERGUS FALLS   MOCLDY    73  63  68 E14       29.79F
MORRIS MN      MOCLDY    73  68  83 E12       29.77F
STAPLES        MOCLDY    66  61  82 SE6       29.87R
$$
  *****  WEATHER ELSEWHERE ACROSS MINNESOTA  *****

CITY           SKY/WX    TMP DP  RH WIND       PRES   REMARKS
DULUTH         CLOUDY    62  59  90 E9        29.94S
INTRNTL FALLS  CLEAR     56  55  97 CALM      29.90R
ELY            CLEAR     61  57  88 CALM      29.95S
CLOQUET        MOCLDY    61  57  88 E3        29.95R
WHEATON        CLOUDY    72  66  83 SE12G18   29.78S
BRAINERD       MOCLDY    67  63  87 VRB6      29.89S
HIBBING        PTCLDY    58  55  90 SE5       29.93S
ALEXANDRIA     CLOUDY    71  65  81 E15       29.84F
SAINT CLOUD    MOCLDY    71  65  81 E8        29.87R
MINNEAPOLIS    MOCLDY    72  65  78 E12       29.87S
$$

  *****  WEATHER ACROSS SOUTH DAKOTA  *****

CITY           SKY/WX    TMP DP  RH WIND       PRES   REMARKS
SIOUX FALLS    MOCLDY    76  72  87 S8        29.74F
BROOKINGS      NOT AVBL
WATERTOWN      CLOUDY    72  68  87 S10       29.75F
HURON          PTCLDY    75  70  84 SE8       29.69S
SISSETON         N/A     74  70  87 SE7       29.74F
ABERDEEN       CLOUDY    72  70  93 NW6       29.73R
MITCHELL       CLEAR     75  73  93 SE7       29.70R
PIERRE         PTCLDY    72  71  97 E6        29.67R
MOBRIDGE       CLOUDY    67  65  93 E12       29.69F
RAPID CITY     CLEAR     67  58  72 N13       29.82S
$$

  *****  SOME WEATHER IN NEARBY STATES *****

CITY           SKY/WX    TMP DP  RH WIND       PRES   REMARKS
GLASGOW MT     CLEAR     67  57  70 W16G23    29.83R
GREAT FALLS MT CLOUDY    57  52  83 N5        29.98R
CHEYENNE WY    MOCLDY    66  46  48 NW10      30.07R
SCOTTSBLUFF NE MOCLDY    74  52  46 S9        29.91R
OMAHA NE       CLEAR     80  72  76 SE13      29.78S
DES MOINES IA  PTCLDY    77  73  87 SE6       29.85R
DAVENPORT IA   PTCLDY    69  67  93 E5        29.93S
CHICAGO IL     CLOUDY    75  65  70 CALM      29.95S
EAU CLAIRE WI  MOCLDY    66  63  90 NE3       29.91S
LA CROSSE WI   PTCLDY    73  67  81 E8        29.90R
$$

  *****  SOME NATIONAL WEATHER *****

CITY           SKY/WX    TMP DP  RH WIND       PRES   REMARKS
LA GUARDIA NY  CLOUDY    74  60  61 SW6       30.03R
RALEIGH NC     MOCLDY    74  70  87 CALM      30.02F
ATLANTA GA     CLOUDY    73  67  81 NW6       30.13F
NEW ORLEANS LA PTCLDY    78  72  81 S5        30.09S
OKLAHOMA CITY  PTCLDY    82  66  58 S10       29.93R
ALBUQUERQUE NM CLEAR     72  45  37 SE6       30.08R
SALT LAKE CITY CLOUDY    65  53  65 N20       30.05R
LOS ANGELES CA PTCLDY    68  60  75 W12       29.92R
BOISE ID       CLOUDY    78  45  30 CALM      29.82R
SEATTLE WA     MOCLDY    63  51  65 SW9       30.01R
$$

*** WEATHER ACROSS MANITOBA...SASKATCHEWAN AND ONTARIO ***
                ***ONTARIO***

CITY           SKY/WX    TMP DP  RH WIND       PRES   REMARKS
GERALDTON      CLOUDY    63  61  94 CALM      29.99R
THUNDER BAY    MOCLDY    59  59 100 N3        29.96F FOG
SIOUX LOOKOUT  CLEAR     64  59  82 SE6       29.93R
TORONTO        MOCLDY    66  64  94 S3        29.93R
BIG TROUT LK   CLEAR     68  55  64 S14G20    29.93R
PICKLE LAKE    NOT AVBL
DRYDEN         CLEAR     64  61  88 SE6       29.92R
KENORA         PTCLDY    64  57  77 SE5       29.90S
$$
                *** MANITOBA***

CITY           SKY/WX    TMP DP  RH WIND       PRES   REMARKS
BRANDON        LGT RAIN  66  64  94 NW7       29.79S
DAUPHIN        LGT RAIN  66  63  88 W9        29.76F
ISLAND LAKE    PTCLDY    73  59  60 S7        29.81R
PILOT MOUND      N/A     66  64  94 SE7         N/A
THE PAS        CLOUDY    64  61  88 NW13G18   29.73R
THOMPSON       CLOUDY    63  63 100 E7        29.71  THUNDER
WINNIPEG       MOCLDY    72  64  78 SE14      29.79F
LYNN LAKE      CLOUDY    54  54 100 MISG      29.77F
CHURCHILL      CLOUDY    48  46  93 NE7       29.77S
GILLAM         PTCLDY    70  57  64 SE7       29.75S
$$
                ***SASKATCHEWAN***

CITY           SKY/WX    TMP DP  RH WIND       PRES   REMARKS
ESTEVAN        PTCLDY    64  63  94 CALM      29.79S
KINDERSLEY     CLOUDY    61  55  82 N10       29.93R
LLOYDMINSTER   MOCLDY    54  50  87 NW6       29.96R
PRINCE ALBERT  PTCLDY    54  54 100 VRB2      29.86R
REGINA         PTCLDY    61  59  94 N8        29.82R
YORKTON        CLOUDY    66  63  88 SW6       29.77S
N. BATTLEFORD  MOCLDY    59  57  94 N10       29.93R
LA RONGE       PTCLDY    55  55 100 NW7       29.88R
SASKATOON      PTCLDY    59  57  94 N5        29.89R
SWIFT CURRENT  LGT RAIN  63  55  77 W7        29.89R
$$
NOTE: THESE ARE AUTOMATED STATIONS WITH LIMITED QUALITY CONTROL
      "FAIR" INDICATES FEW OR NO CLOUDS BELOW 12,000 FEET WITH NO
      SIGNIFICANT WEATHER AND/OR OBSTRUCTIONS TO VISIBILITY.
      SKY/WX - SKY CONDITION AND SIGNIFICANT WEATHER.
      TMP - AIR TEMPERATURE.    DP   - DEWPOINT TEMPERATURE.
      RH  - RELATIVE HUMIDITY.  PRES - PRESSURE.
      HX  - HEAT INDEX.         WCI  - WIND CHILL INDEX.
$



USA.gov is the U.S. government's official web portal to all federal, state and local government web resources and services.